User: anonymous   Login
Location: Unspecified
(39.4792°N, 0.0000°E)
Time: 10:44:20
(UTC+00:00)
Language:

CZ-6A DEB - Orbit

View from above orbital plane
View from above orbital plane
View from above satellite
View from above satellite

Ground track
Ground track

The orbit is defined by the following mean orbital elements,

1 60969U          26088.02182372 +.00000000 +00000-0 +10882-3 0 00004
2 60969  89.0008 284.3875 0053760 104.2509 256.4659 14.18186820    02
Epoch (UTC): 29 March 2026 00:31:25
Eccentricity: 0.0053760
inclination: 89.0008°
perigee height: 793 km
apogee height: 870 km
right ascension of ascending node: 284.3875°
argument of perigee: 104.2509°
revolutions per day: 14.18186820
mean anomaly at epoch: 256.4659°

The dashed part of the orbit path shows where the satellite is in the earth's shadow,  

DLR